User: anonymous   Login
Location: Greenwich
(51.4790°N, 0.0090°E)
Time: 04:26:25
(UTC+01:00)
Language:

deb Explorer IX - Orbit

View from above orbital plane
View from above orbital plane
View from above satellite
View from above satellite

Ground track
Ground track

The orbit data is extracted from the following two-line orbital elements,

1 00085U 61004C   24112.59314430  .00035620  00000-0  48083-2 0  9994
2 00085  38.7496 312.4064 0274405 276.5450  80.4140 14.55605768132137
Epoch (UTC): 21 April 2024 14:14:07
Eccentricity: 0.0274405
inclination: 38.7496°
perigee height: 513 km
apogee height: 902 km
right ascension of ascending node: 312.4064°
argument of perigee: 276.5450°
revolutions per day: 14.55605768
mean anomaly at epoch: 80.4140°
orbit number at epoch: 13213

The dashed part of the orbit path shows where the satellite is in the earth's shadow,  

DLR